User: anonymous   Login
Location: Mentone
(34.5413°N, 85.5351°W)
Time: 21:53:42
(UTC-05:00)
Language:

Cosmos 1703 - Orbit

View from above orbital plane
View from above orbital plane
View from above satellite
View from above satellite

Ground track
Ground track

The orbit data is extracted from the following two-line orbital elements,

1 16262U 85108A   16177.19522122  .00001129  00000-0  68050-4 0  9991
2 16262  82.4752 240.3818 0011719  73.6526 286.5990 15.09760708665022
Epoch (UTC): 25 June 2016 04:41:07
Eccentricity: 0.0011719
inclination: 82.4752°
perigee height: 529 km
apogee height: 545 km
right ascension of ascending node: 240.3818°
argument of perigee: 73.6526°
revolutions per day: 15.09760708
mean anomaly at epoch: 286.5990°
orbit number at epoch: 66502

The dashed part of the orbit path shows where the satellite is in the earth's shadow,  

DLR